This demonstration page uses our WeatherBlox Daily Observations layout. Learn more.

Left ArrowRight Arrow

44.31136, -96.79839

Hourly Observations for July 14, 2015

Temp ( °F °C ) Dew Point ( °F °C ) Humidity (%) Winds ( mph kmh ) Pressure ( in mb ) Visibility ( mi km ) Precip ( " mm )
12:15 am 00:15 Clear 70 21 61 16 73 73 Calm 29.71 1006 10 16 0.00 0.00
12:35 am 00:35 Clear 70 21 61 16 73 73 NNW 3 6 29.71 1006 10 16 0.00 0.00
12:55 am 00:55 Clear 70 21 63 17 78 78 NNW 5 7 29.71 1006 10 16 0.00 0.00
1:15 am 01:15 Clear 68 20 61 16 78 78 Calm 29.71 1006 10 16 0.00 0.00
1:35 am 01:35 Clear 68 20 63 17 83 83 Calm 29.71 1006 10 16 0.00 0.00
1:55 am 01:55 Clear 66 19 61 16 83 83 Calm 29.71 1006 10 16 0.00 0.00
2:15 am 02:15 Clear 66 19 61 16 83 83 Calm 29.71 1006 10 16 0.00 0.00
2:35 am 02:35 Clear 66 19 61 16 83 83 Calm 29.71 1006 10 16 0.00 0.00
2:55 am 02:55 Clear 66 19 61 16 83 83 WNW 3 6 29.71 1006 10 16 0.00 0.00
3:15 am 03:15 Clear 66 19 61 16 83 83 Calm 29.71 1006 10 16 0.00 0.00
3:35 am 03:35 Clear 66 19 61 16 83 83 Calm 29.71 1006 10 16 0.00 0.00
3:55 am 03:55 Clear 66 19 61 16 83 83 WSW 3 6 29.74 1007 10 16 0.00 0.00
4:15 am 04:15 Clear 64 18 61 16 88 88 WNW 3 6 29.74 1007 10 16 0.00 0.00
4:35 am 04:35 Clear 64 18 61 16 88 88 Calm 29.74 1007 10 16 0.00 0.00
4:55 am 04:55 Clear 64 18 61 16 88 88 Calm 29.74 1007 10 16 0.00 0.00
5:15 am 05:15 Clear 64 18 61 16 88 88 N 3 6 29.74 1007 10 16 0.00 0.00
5:35 am 05:35 Clear 64 18 61 16 88 88 Calm 29.74 1007 10 16 0.00 0.00
5:55 am 05:55 Clear 64 18 59 15 83 83 Calm 29.77 1008 10 16 0.00 0.00
6:15 am 06:15 Sunny 64 18 61 16 88 88 Calm 29.77 1008 10 16 0.00 0.00
6:35 am 06:35 Sunny 64 18 61 16 88 88 Calm 29.77 1008 10 16 0.00 0.00
6:55 am 06:55 Sunny 64 18 61 16 88 88 WNW 3 6 29.77 1008 10 16 0.00 0.00
7:15 am 07:15 Sunny 66 19 63 17 88 88 NW 3 6 29.80 1009 10 16 0.00 0.00
7:35 am 07:35 Sunny 68 20 63 17 83 83 Calm 29.80 1009 10 16 0.00 0.00
7:55 am 07:55 Sunny 70 21 64 18 83 83 NNW 6 9 29.80 1009 10 16 0.00 0.00
8:15 am 08:15 Sunny 70 21 64 18 83 83 N 6 9 29.80 1009 10 16 0.00 0.00
8:35 am 08:35 Sunny 72 22 64 18 78 78 NNW 6 9 29.80 1009 10 16 0.00 0.00
8:55 am 08:55 Sunny 72 22 64 18 78 78 NW 7 11 29.83 1010 10 16 0.00 0.00
9:15 am 09:15 undefined 73 23 66 19 78 78 N 9 15 29.83 1010 10 16 0.00 0.00
9:35 am 09:35 Sunny 73 23 66 19 78 78 N 9 15 29.83 1010 10 16 0.00 0.00
9:55 am 09:55 Sunny 73 23 66 19 78 78 N 8 13 29.83 1010 10 16 0.00 0.00
10:15 am 10:15 Mostly Sunny 75 24 66 19 74 74 N 7 11 29.80 1009 10 16 0.00 0.00
10:35 am 10:35 Mostly Sunny 75 24 66 19 74 74 N 8 13 29.80 1009 10 16 0.00 0.00
10:55 am 10:55 Mostly Sunny 77 25 66 19 69 69 NNE 8 13 29.80 1009 10 16 0.00 0.00
11:15 am 11:15 Mostly Cloudy 77 25 66 19 69 69 NE 5 7 29.80 1009 10 16 0.00 0.00
11:35 am 11:35 Mostly Cloudy 79 26 66 19 65 65 NE 8 13 29.80 1009 10 16 0.00 0.00
11:55 am 11:55 Partly Cloudy 79 26 64 18 61 61 ENE 8 13 29.80 1009 10 16 0.00 0.00
12:15 pm 12:15 Partly Cloudy 81 27 64 18 58 58 N 7 11 29.80 1009 10 16 0.00 0.00
12:35 pm 12:35 Mostly Cloudy 79 26 64 18 61 61 N 8 13 29.83 1010 10 16 0.00 0.00
12:55 pm 12:55 Mostly Cloudy 81 27 64 18 58 58 N 7 11 29.83 1010 10 16 0.00 0.00
1:15 pm 13:15 Mostly Sunny 81 27 64 18 58 58 NE 7 11 29.83 1010 10 16 0.00 0.00
1:35 pm 13:35 Partly Cloudy 82 28 66 19 58 58 NNE 7 11 29.80 1009 10 16 0.00 0.00
1:55 pm 13:55 Partly Cloudy 82 28 66 19 58 58 NNE 7 11 29.80 1009 10 16 0.00 0.00
2:15 pm 14:15 Mostly Sunny 82 28 64 18 55 55 ENE 9 15 29.80 1009 10 16 0.00 0.00
2:35 pm 14:35 Partly Cloudy 82 28 66 19 58 58 ENE 10 17 29.80 1009 10 16 0.00 0.00
2:55 pm 14:55 Partly Cloudy 82 28 66 19 58 58 N 7 11 29.83 1010 10 16 0.00 0.00
3:15 pm 15:15 Mostly Cloudy 82 28 64 18 55 55 NNE 6 9 29.83 1010 10 16 0.00 0.00
3:35 pm 15:35 Partly Cloudy 82 28 64 18 55 55 NNE 7 11 29.83 1010 10 16 0.00 0.00
3:55 pm 15:55 Partly Cloudy 82 28 63 17 51 51 NNE 9 15 29.83 1010 10 16 0.00 0.00
4:15 pm 16:15 Partly Cloudy 84 29 64 18 51 51 NNE 5 7 29.80 1009 10 16 0.00 0.00
4:35 pm 16:35 Mostly Sunny 82 28 63 17 51 51 NE 3 6 29.83 1010 10 16 0.00 0.00
4:55 pm 16:55 Mostly Sunny 82 28 63 17 51 51 E 6 9 29.83 1010 10 16 0.00 0.00
5:15 pm 17:15 Mostly Cloudy 84 29 63 17 48 48 NE 8 13 29.77 1008 10 16 0.00 0.00
5:35 pm 17:35 Mostly Sunny 84 29 63 17 48 48 NE 6 9 29.77 1008 10 16 0.00 0.00
5:55 pm 17:55 Mostly Sunny 82 28 64 18 55 55 ESE 5 7 29.80 1009 10 16 0.00 0.00
6:15 pm 18:15 Mostly Sunny 82 28 64 18 55 55 NNE 6 9 29.80 1009 10 16 0.00 0.00
6:35 pm 18:35 Sunny 84 29 64 18 51 51 ENE 5 7 29.77 1008 10 16 0.00 0.00
6:55 pm 18:55 Mostly Cloudy 82 28 64 18 55 55 E 8 13 29.80 1009 10 16 0.00 0.00
7:15 pm 19:15 Mostly Sunny 82 28 64 18 55 55 ESE 6 9 29.80 1009 10 16 0.00 0.00
7:35 pm 19:35 Mostly Sunny 82 28 64 18 55 55 SE 5 7 29.80 1009 10 16 0.00 0.00
7:55 pm 19:55 Sunny 82 28 64 18 55 55 SSE 6 9 29.83 1010 10 16 0.00 0.00
8:15 pm 20:15 Sunny 81 27 64 18 58 58 ESE 7 11 29.80 1009 10 16 0.00 0.00
8:35 pm 20:35 Sunny 81 27 64 18 58 58 SE 6 9 29.83 1010 10 16 0.00 0.00
8:55 pm 20:55 Sunny 81 27 64 18 58 58 SE 6 9 29.83 1010 10 16 0.00 0.00
9:15 pm 21:15 Clear 79 26 64 18 61 61 ESE 6 9 29.83 1010 10 16 0.00 0.00
9:35 pm 21:35 Clear 79 26 64 18 61 61 ESE 6 9 29.83 1010 10 16 0.00 0.00
9:55 pm 21:55 Clear 77 25 64 18 65 65 SE 7 11 29.85 1011 10 16 0.00 0.00
10:15 pm 22:15 Clear 75 24 66 19 74 74 SE 6 9 29.85 1011 10 16 0.00 0.00
10:35 pm 22:35 Clear 75 24 66 19 74 74 SE 6 9 29.85 1011 10 16 0.00 0.00
10:55 pm 22:55 Clear 75 24 64 18 69 69 ESE 6 9 29.85 1011 10 16 0.00 0.00
11:35 pm 23:35 Clear 73 23 64 18 74 74 SE 7 11 29.88 1012 10 16 0.00 0.00
11:55 pm 23:55 Clear 72 22 64 18 78 78 SE 5 7 29.91 1013 10 16 0.00 0.00

Powered by AerisWeather